WA7RHK-2 Weather Reports


time (UTC)temp
F
wind
direction
speed
knots
gust
knots
rain 1hr
in
rain 24hr
in
rain mn
in
humidity
%
barometer
mb
20240723050023 73 203 0.0 0.9 0.01 0.51 0.00 94 1015.1
20240723044519 73 158 0.0 0.9 0.02 0.51 0.51 94 1015.1
20240723043019 73 134 0.0 0.0 0.01 0.50 0.50 94 1015.1
20240723041518 73 134 0.0 0.0 0.01 0.50 0.50 94 1015.0
20240723040018 73 125 0.0 0.0 0.02 0.50 0.50 94 1014.9
20240723034532 74 104 0.0 0.0 0.03 0.49 0.49 94 1014.9
20240723033016 74 104 0.0 0.0 0.03 0.49 0.49 93 1014.6
20240723031521 74 117 0.0 0.0 0.03 0.49 0.49 93 1014.7
20240723030017 74 130 0.0 0.0 0.02 0.48 0.48 92 1014.7
20240723024515 75 129 0.0 0.0 0.00 0.46 0.46 91 1014.7
20240723023015 75 110 0.0 0.9 0.00 0.46 0.46 91 1014.5
20240723021513 75 125 0.0 0.9 0.00 0.46 0.46 90 1014.4
20240723020113 75 114 0.0 0.9 0.00 0.46 0.46 90 1014.2
20240723014516 76 108 0.0 0.9 0.00 0.46 0.46 90 1014.1
20240723013011 76 110 0.0 2.6 0.00 0.46 0.46 89 1013.8
20240723011511 76 108 0.0 1.7 0.00 0.46 0.46 89 1013.6
20240723010013 76 103 0.0 0.9 0.00 0.46 0.46 88 1013.6
20240723004520 76 105 0.0 0.9 0.00 0.46 0.46 88 1013.6
20240723003009 77 117 1.7 7.0 0.00 0.46 0.46 87 1014.0
20240723001509 77 121 2.6 7.8 0.00 0.46 0.46 88 1014.0
20240723000009 79 64 1.7 4.3 0.00 0.46 0.46 84 1013.9
20240722234508 79 115 0.0 0.9 0.00 0.46 0.46 84 1014.1
20240722233012 80 108 0.0 0.9 0.00 0.46 0.46 81 1014.1
20240722231518 81 104 0.0 0.9 0.00 0.46 0.46 82 1013.8
20240722230007 81 301 0.0 0.9 0.00 0.46 0.46 82 1013.6
20240722224507 82 311 0.0 3.5 0.00 0.46 0.46 84 1013.6
20240722223001 81 106 0.0 0.9 0.00 0.46 0.46 80 1013.4
20240722221600 81 248 0.0 0.0 0.00 0.46 0.46 82 1013.3
20240722220110 79 248 0.0 0.0 0.00 0.46 0.46 86 1013.2
20240722214557 79 126 0.0 0.0 0.00 0.46 0.46 87 1013.2
20240722213055 78 126 0.0 0.9 0.00 0.46 0.46 88 1013.6
20240722211555 78 65 0.0 0.9 0.00 0.46 0.46 88 1013.6
20240722210055 78 98 0.0 4.3 0.00 0.46 0.46 87 1013.7
20240722204557 78 42 0.0 0.9 0.00 0.46 0.46 89 1014.2
20240722203057 76 121 0.0 2.6 0.00 0.46 0.46 92 1014.4
20240722201551 76 127 0.0 1.7 0.03 0.46 0.46 94 1014.5
20240722200050 75 302 0.0 0.9 0.18 0.46 0.46 94 1013.9
20240722194548 73 344 0.0 0.9 0.28 0.46 0.46 94 1013.6
20240722193047 73 84 0.0 0.0 0.31 0.46 0.46 94 1013.9
20240722191547 72 330 0.0 0.0 0.27 0.42 0.42 94 1015.2
20240722190044 73 328 0.9 6.1 0.12 0.27 0.27 93 1014.7
20240722184545 75 321 0.0 2.6 0.01 0.16 0.16 91 1014.9
20240722183043 79 316 0.9 4.3 0.00 0.15 0.15 87 1014.4
20240722181541 81 174 0.0 0.0 0.00 0.15 0.15 89 1014.1
20240722180042 80 174 0.0 0.0 0.00 0.15 0.15 89 1014.1
20240722174538 79 172 0.0 0.9 0.08 0.15 0.15 90 1013.8
20240722173037 79 212 0.0 3.5 0.08 0.15 0.15 91 1014.1
20240722171537 77 173 0.0 1.7 0.08 0.15 0.15 92 1014.1
20240722170037 77 197 0.0 3.5 0.09 0.15 0.15 92 1014.7
20240722164545 78 174 1.7 6.1 0.02 0.07 0.07 91 1014.8
20240722163041 79 145 0.0 3.5 0.04 0.07 0.07 93 1014.9
20240722161533 79 160 0.0 0.9 0.06 0.07 0.07 93 1014.8
20240722160033 79 169 0.0 3.5 0.06 0.06 0.06 92 1014.9
20240722154532 79 151 0.0 0.9 0.05 0.05 0.05 92 1015.0
20240722153037 79 205 0.0 0.9 0.02 0.02 0.02 92 1015.0
20240722151530 79 174 0.0 1.7 0.01 0.01 0.01 90 1014.9
20240722150029 80 205 0.0 3.5 0.00 0.00 0.00 89 1014.9
20240722144532 80 229 0.0 3.5 0.00 0.00 0.00 89 1015.0
20240722143024 79 214 0.0 4.3 0.00 0.00 0.00 90 1014.9
20240722141521 78 228 0.0 6.1 0.00 0.00 0.00 91 1014.8
20240722140027 77 156 0.0 4.3 0.00 0.00 0.00 92 1014.7
20240722134515 76 162 1.7 3.5 0.00 0.00 0.00 92 1014.6
20240722133012 76 174 0.0 1.7 0.00 0.00 0.00 92 1014.5
20240722131511 75 204 0.0 0.9 0.00 0.00 0.00 92 1014.5
20240722130021 75 151 0.0 0.9 0.00 0.00 0.00 92 1014.5
20240722124509 74 165 0.0 0.0 0.00 0.00 0.00 92 1014.4
20240722123008 74 124 0.0 0.0 0.00 0.00 0.00 92 1014.0
20240722121505 0 0.0 0.0 0.00 0.00 0.00 1013.9
20240722120156 0 0.0 0.0 0.00 0.00 0.00 1013.9
20240722114555 0 0.0 0.0 0.00 0.00 0.00 1013.9
20240722113050 0 0.0 0.0 0.00 0.00 0.00 1013.8
20240722111547 0 0.0 0.0 0.00 0.00 0.00 1013.7
20240722110047 0 0.0 0.0 0.00 0.00 0.00 1013.7
20240722104539 0 0.0 0.0 0.00 0.00 0.00 1013.7
20240722103037 73 124 0.0 0.0 0.00 0.00 0.00 91 1013.7
20240722101533 73 124 0.0 0.0 0.00 0.00 0.00 91 1013.8
20240722100031 73 124 0.0 0.0 0.00 0.00 0.00 92 1013.8
20240722094530 73 124 0.0 0.0 0.00 0.00 0.00 91 1013.8
20240722093028 73 124 0.0 0.0 0.00 0.00 0.00 91 1013.7
20240722091528 73 124 0.0 0.0 0.00 0.00 0.00 91 1013.7
20240722090028 73 124 0.0 0.0 0.00 0.00 0.00 91 1013.7
20240722084527 73 124 0.0 0.0 0.00 0.00 0.00 91 1013.6
20240722083027 73 124 0.0 0.0 0.00 0.00 0.00 91 1013.6
20240722081526 73 124 0.0 0.0 0.00 0.00 0.00 90 1013.6
20240722080025 73 124 0.0 0.0 0.00 0.00 0.00 90 1013.3
20240722074534 73 124 0.0 0.0 0.00 0.00 0.00 89 1013.4
20240722073021 74 124 0.0 0.0 0.00 0.00 0.00 88 1013.4
20240722071538 74 124 0.0 0.0 0.00 0.00 0.00 88 1013.6
20240722070041 74 124 0.0 0.0 0.00 0.00 0.00 88 1013.9
20240722064515 75 124 0.0 0.0 0.00 0.00 0.00 87 1014.0
20240722063017 75 124 0.0 0.0 0.00 0.00 0.00 87 1014.1
20240722061513 75 124 0.0 0.0 0.00 0.00 0.00 87 1014.0
20240722060012 75 124 0.0 0.0 0.00 0.00 0.00 87 1014.0
20240722054512 75 124 0.0 0.0 0.00 0.00 0.00 88 1014.2
20240722053007 75 124 0.0 0.0 0.00 0.00 0.00 87 1014.2
20240722051505 76 124 0.0 0.0 0.00 0.00 0.00 86 1014.4